Weather History for Atka, AK

Change the Weather History Date:

Sunday, January 12, 2014

  Actual Average (PADK) Record (PADK)
Temperature  
Mean Temperature 35 °F -  
Max Temperature 37 °F 38 °F 48 °F (1971)
Min Temperature 33 °F 27 °F 3 °F (1989)
Degree Days  
Heating Degree Days 30    
Moisture  
Dew Point 29 °F    
Average Humidity 78    
Maximum Humidity 87    
Minimum Humidity 70    
Precipitation  
Precipitation 0.00 in - - ()
Sea Level Pressure  
Sea Level Pressure 29.04 in    
Wind  
Wind Speed 12 mph (West)    
Max Wind Speed 23 mph    
Max Gust Speed 30 mph    
Visibility 9 miles    
Events      
Averages and records for this station are not official NWS values.
T = Trace of Precipitation, MM = Missing Value Source: NWS Daily Summary

Daily Weather History Graph

Daily Weather History Graph

Search for Another Location

Airport:

Trip Planner

Search our weather history database for the weather conditions in past years. The results will help you decide how hot, cold, wet, or windy it might be!

Date:

Astronomy

Jan. 12, 2014 Rise Set
Actual Time 9:41 AM HAST 5:49 PM HAST
Civil Twilight 9:01 AM HAST 6:29 PM HAST
Nautical Twilight 8:18 AM HAST 7:12 PM HAST
Astronomical Twilight 7:37 AM HAST 7:53 PM HAST
Moon 3:31 PM HAST (1/12) 6:48 AM HAST (1/12)
Length of Visible Light 9h 28m
Length of Day
8h 08m
Waxing Gibbous, 91% of the Moon is Illuminated
Jan 12
Waxing Gibbous
Jan 15
Full
Jan 23
Last Quarter
Jan 30
New
Feb 6
First Quarter

Hourly Weather History & Observations

Time (HAST) Temp. Windchill Dew Point Humidity Pressure Visibility Wind Dir Wind Speed Gust Speed Precip Events Conditions
12:16 AM 35.6 °F 28.0 °F 30.2 °F 81% 28.86 in 10.0 mi SW 10.4 mph - N/A   Overcast
12:36 AM 37.4 °F 30.8 °F 30.2 °F 75% 28.86 in 10.0 mi SW 9.2 mph - N/A   Overcast
12:56 AM 37.4 °F 31.4 °F 30.2 °F 75% 28.87 in 10.0 mi SW 8.1 mph - N/A   Overcast
1:16 AM 37.4 °F 31.4 °F 28.4 °F 70% 28.87 in 10.0 mi SW 8.1 mph - N/A   Overcast
1:36 AM 37.4 °F 30.8 °F 30.2 °F 75% 28.86 in 10.0 mi SW 9.2 mph - N/A   Overcast
1:56 AM 37.4 °F 32.1 °F 30.2 °F 75% 28.87 in 10.0 mi WSW 6.9 mph - N/A   Overcast
2:16 AM 35.6 °F 24.5 °F 30.2 °F 81% 28.87 in 5.0 mi West 20.7 mph 26.5 mph N/A   Overcast
2:36 AM 35.6 °F 24.5 °F 32.0 °F 87% 28.88 in 9.0 mi West 20.7 mph 25.3 mph N/A   Overcast
2:56 AM 35.6 °F 25.5 °F 30.2 °F 81% 28.89 in 10.0 mi West 17.3 mph 24.2 mph N/A   Mostly Cloudy
3:16 AM 37.4 °F 29.3 °F 30.2 °F 75% 28.90 in 8.0 mi West 12.7 mph 21.9 mph N/A   Overcast
3:36 AM 37.4 °F 27.5 °F 30.2 °F 75% 28.90 in 10.0 mi West 18.4 mph 23.0 mph N/A   Mostly Cloudy
3:56 AM 37.4 °F 28.5 °F 30.2 °F 75% 28.91 in 10.0 mi West 15.0 mph - N/A   Mostly Cloudy
4:16 AM 37.4 °F 28.9 °F 30.2 °F 75% 28.92 in 10.0 mi West 13.8 mph 21.9 mph N/A   Scattered Clouds
4:36 AM 37.4 °F 27.8 °F 28.4 °F 70% 28.93 in 7.0 mi West 17.3 mph 29.9 mph N/A   Mostly Cloudy
4:56 AM 37.4 °F 28.2 °F 28.4 °F 70% 28.93 in 10.0 mi West 16.1 mph 23.0 mph N/A   Mostly Cloudy
5:16 AM 35.6 °F 24.0 °F 30.2 °F 81% 28.94 in 9.0 mi West 23.0 mph 26.5 mph N/A   Overcast
5:36 AM 37.4 °F 27.8 °F 30.2 °F 75% 28.94 in 10.0 mi West 17.3 mph 20.7 mph N/A   Overcast
5:56 AM 37.4 °F 28.2 °F 30.2 °F 75% 28.95 in 10.0 mi West 16.1 mph 23.0 mph N/A   Mostly Cloudy
6:16 AM 37.4 °F 26.9 °F 30.2 °F 75% 28.95 in 10.0 mi West 20.7 mph 29.9 mph N/A   Overcast
6:36 AM 35.6 °F 25.2 °F 28.4 °F 75% 28.96 in 7.0 mi West 18.4 mph 24.2 mph N/A   Overcast
6:56 AM 35.6 °F 25.2 °F 30.2 °F 81% 28.97 in 7.0 mi West 18.4 mph - N/A   Overcast
7:16 AM 35.6 °F 26.6 °F 30.2 °F 81% 28.98 in 10.0 mi West 13.8 mph - N/A   Overcast
7:36 AM 35.6 °F 28.6 °F 30.2 °F 81% 28.99 in 10.0 mi West 9.2 mph - N/A   Mostly Cloudy
7:56 AM 35.6 °F 27.5 °F 30.2 °F 81% 28.99 in 10.0 mi West 11.5 mph - N/A   Mostly Cloudy
8:16 AM 35.6 °F 29.2 °F 30.2 °F 81% 29.00 in 10.0 mi WNW 8.1 mph 18.4 mph N/A   Overcast
8:36 AM 35.6 °F 27.5 °F 30.2 °F 81% 29.01 in 10.0 mi WSW 11.5 mph - N/A   Mostly Cloudy
8:56 AM 35.6 °F 29.2 °F 30.2 °F 81% 29.02 in 10.0 mi WSW 8.1 mph - N/A   Overcast
9:16 AM 35.6 °F 28.6 °F 30.2 °F 81% 29.03 in 10.0 mi WSW 9.2 mph - N/A   Overcast
9:36 AM 35.6 °F 27.5 °F 30.2 °F 81% 29.04 in 4.0 mi West 11.5 mph - N/A   Overcast
9:56 AM 35.6 °F 27.5 °F 30.2 °F 81% 29.05 in 10.0 mi WSW 11.5 mph 17.3 mph N/A   Overcast
10:16 AM 35.6 °F 27.5 °F 30.2 °F 81% 29.06 in 5.0 mi West 11.5 mph - N/A   Overcast
10:36 AM 35.6 °F 29.2 °F 30.2 °F 81% 29.07 in 7.0 mi WSW 8.1 mph - N/A   Overcast
10:56 AM 35.6 °F 29.2 °F 30.2 °F 81% 29.08 in 10.0 mi West 8.1 mph - N/A   Mostly Cloudy
11:16 AM 35.6 °F 29.2 °F 28.4 °F 75% 29.09 in 10.0 mi WSW 8.1 mph - N/A   Overcast
11:36 AM 35.6 °F 29.9 °F 28.4 °F 75% 29.09 in 10.0 mi West 6.9 mph - N/A   Mostly Cloudy
11:56 AM 33.8 °F 26.4 °F 28.4 °F 81% 29.09 in 2.5 mi WSW 9.2 mph - N/A   Overcast
12:16 PM 33.8 °F 27.0 °F 28.4 °F 81% 29.09 in 9.0 mi WSW 8.1 mph - N/A   Overcast
12:36 PM 35.6 °F 28.6 °F 28.4 °F 75% 29.10 in 10.0 mi WSW 9.2 mph - N/A   Mostly Cloudy
12:56 PM 35.6 °F 29.9 °F 28.4 °F 75% 29.10 in 10.0 mi West 6.9 mph - N/A   Mostly Cloudy
1:16 PM 35.6 °F 27.5 °F 28.4 °F 75% 29.09 in 10.0 mi West 11.5 mph - N/A   Mostly Cloudy
1:36 PM 35.6 °F 28.6 °F 28.4 °F 75% 29.09 in 10.0 mi WSW 9.2 mph - N/A   Overcast
1:56 PM 35.6 °F 28.6 °F 28.4 °F 75% 29.09 in 8.0 mi WSW 9.2 mph - N/A   Overcast
2:16 PM 35.6 °F 29.2 °F 30.2 °F 81% 29.09 in 10.0 mi West 8.1 mph - N/A   Mostly Cloudy
2:36 PM 35.6 °F 29.2 °F 28.4 °F 75% 29.09 in 10.0 mi West 8.1 mph - N/A   Mostly Cloudy
2:56 PM 35.6 °F 30.7 °F 30.2 °F 81% 29.09 in 10.0 mi WNW 5.8 mph - N/A   Mostly Cloudy
3:16 PM 35.6 °F 26.2 °F 28.4 °F 75% 29.09 in 10.0 mi West 15.0 mph 20.7 mph N/A   Mostly Cloudy
3:36 PM 33.8 °F 25.8 °F 28.4 °F 81% 29.10 in 1.2 mi West 10.4 mph - N/A   Overcast
3:56 PM 33.8 °F 25.8 °F 28.4 °F 81% 29.09 in 10.0 mi West 10.4 mph - N/A   Overcast
4:16 PM 33.8 °F 27.0 °F 28.4 °F 81% 29.10 in 10.0 mi WNW 8.1 mph - N/A   Overcast
4:36 PM 33.8 °F 25.8 °F 26.6 °F 75% 29.11 in 7.0 mi West 10.4 mph 16.1 mph N/A   Mostly Cloudy
4:56 PM 33.8 °F 28.6 °F 28.4 °F 81% 29.11 in 10.0 mi West 5.8 mph - N/A   Overcast
5:16 PM 35.6 °F 28.6 °F 26.6 °F 70% 29.11 in 10.0 mi West 9.2 mph - N/A   Overcast
5:36 PM 33.8 °F 27.7 °F 26.6 °F 75% 29.11 in 10.0 mi WSW 6.9 mph - N/A   Overcast
5:56 PM 33.8 °F 26.4 °F 26.6 °F 75% 29.11 in 10.0 mi SW 9.2 mph - N/A   Overcast
6:16 PM 33.8 °F 24.8 °F 28.4 °F 81% 29.12 in 4.0 mi SW 12.7 mph - N/A   Mostly Cloudy
6:36 PM 33.8 °F 27.7 °F 28.4 °F 81% 29.12 in 10.0 mi SW 6.9 mph - N/A   Mostly Cloudy
6:56 PM 33.8 °F 27.7 °F 26.6 °F 75% 29.12 in 10.0 mi SW 6.9 mph - N/A   Overcast
7:16 PM 33.8 °F 27.0 °F 26.6 °F 75% 29.12 in 10.0 mi SW 8.1 mph - N/A   Overcast
7:36 PM 33.8 °F 27.0 °F 26.6 °F 75% 29.12 in 10.0 mi WSW 8.1 mph - N/A   Overcast
7:56 PM 33.8 °F 27.0 °F 26.6 °F 75% 29.12 in 10.0 mi WSW 8.1 mph - N/A   Overcast
8:16 PM 33.8 °F 25.3 °F 26.6 °F 75% 29.12 in 10.0 mi WNW 11.5 mph 17.3 mph N/A   Mostly Cloudy
8:36 PM 33.8 °F 25.8 °F 26.6 °F 75% 29.13 in 10.0 mi West 10.4 mph - N/A   Overcast
8:56 PM 33.8 °F 26.4 °F 28.4 °F 81% 29.13 in 10.0 mi WNW 9.2 mph 16.1 mph N/A   Overcast
9:16 PM 33.8 °F 27.7 °F 28.4 °F 81% 29.14 in 10.0 mi West 6.9 mph - N/A   Overcast
9:36 PM 33.8 °F 27.7 °F 26.6 °F 75% 29.14 in 10.0 mi West 6.9 mph - N/A   Overcast
9:56 PM 33.8 °F 25.3 °F 24.8 °F 70% 29.14 in 10.0 mi West 11.5 mph - N/A   Mostly Cloudy
10:16 PM 33.8 °F 25.8 °F 28.4 °F 81% 29.14 in 10.0 mi West 10.4 mph - N/A   Overcast
10:36 PM 33.8 °F 24.3 °F 28.4 °F 81% 29.14 in 9.0 mi West 13.8 mph - N/A   Mostly Cloudy
10:56 PM 33.8 °F 23.9 °F 28.4 °F 81% 29.14 in 2.0 mi West 15.0 mph - N/A   Overcast
11:16 PM 33.8 °F 24.3 °F 28.4 °F 81% 29.13 in 3.0 mi West 13.8 mph - N/A   Overcast
11:36 PM 33.8 °F 24.3 °F 28.4 °F 81% 29.13 in 5.0 mi West 13.8 mph - N/A   Overcast
11:56 PM 33.8 °F 25.3 °F 28.4 °F 81% 29.13 in 5.0 mi WSW 11.5 mph - N/A   Overcast